GW3103 Weather Reports


time (UTC)temp
F
wind
direction
speed
knots
gust
knots
rain 1hr
in
rain 24hr
in
rain mn
in
humidity
%
barometer
mb
20260504141327 61 292 2.6 2.6 0.00 0.00 0.00 45 1012.0
20260504140824 61 209 2.6 5.2 0.00 0.00 0.00 45 1012.1
20260504140319 61 298 6.1 9.6 0.00 0.00 0.00 44 1012.1
20260504130748 56 54 0.0 0.0 0.00 0.00 0.00 52 1012.6
20260504130244 56 3 0.9 0.9 0.00 0.00 0.00 52 1012.6
20260504120208 47 99 0.0 0.9 0.00 0.00 0.00 76 1013.3
20260504110636 41 56 0.0 0.0 0.00 0.00 0.00 86 1013.0
20260504110131 39 56 0.0 0.0 0.00 0.00 0.00 88 1012.8
20260504100557 33 26 0.0 0.0 0.00 0.00 0.00 92 1013.0
20260504081951 36 25 0.0 0.0 0.00 0.00 0.00 88 1013.2
20260504081448 36 26 0.0 0.0 0.00 0.00 0.00 88 1013.0
20260504080943 36 26 0.0 0.0 0.00 0.00 0.00 88 1012.8
20260504080441 37 26 0.0 0.0 0.00 0.00 0.00 88 1013.1
20260504070408 38 26 0.0 0.0 0.00 0.00 0.00 83 1012.9
20260504050253 43 25 0.0 0.0 0.00 0.00 0.00 72 1012.7
20260504045750 43 25 0.0 0.0 0.00 0.00 0.00 71 1012.7
20260504045245 44 24 0.0 0.0 0.00 0.00 0.00 70 1012.9
20260504044743 45 23 0.0 0.0 0.00 0.00 0.00 66 1013.0
20260504044240 46 2 0.0 0.0 0.00 0.00 0.00 63 1012.6
20260504043737 44 207 0.0 0.0 0.00 0.00 0.00 64 1012.6
20260504043234 43 36 0.0 0.0 0.00 0.00 0.00 69 1012.6
20260504042732 43 32 0.0 0.0 0.00 0.00 0.00 69 1012.7
20260504042228 43 359 0.0 0.0 0.00 0.00 0.00 69 1012.5
20260504041724 43 359 0.0 0.0 0.00 0.00 0.00 71 1012.6
20260504041220 42 359 0.0 0.0 0.00 0.00 0.00 73 1012.6
20260504040716 42 359 0.0 0.0 0.00 0.00 0.00 72 1012.6
20260504040214 42 359 0.0 0.0 0.00 0.00 0.00 74 1012.5
20260504035710 42 359 0.0 0.0 0.00 0.00 0.00 72 1012.3
20260504035208 42 359 0.0 0.0 0.00 0.00 0.00 72 1012.3
20260504034705 42 359 0.0 0.0 0.00 0.00 0.00 72 1012.5
20260504034202 43 359 0.0 0.0 0.00 0.00 0.00 72 1012.3
20260504033659 43 359 0.0 0.0 0.00 0.00 0.00 72 1012.2
20260504033156 43 359 0.0 0.0 0.00 0.00 0.00 72 1012.3
20260504032653 43 359 0.0 0.0 0.00 0.00 0.00 72 1012.1
20260504032150 44 359 0.0 0.0 0.00 0.00 0.00 69 1012.2
20260504031647 44 359 0.0 0.9 0.00 0.00 0.00 69 1012.2
20260504031144 44 359 0.0 0.0 0.00 0.00 0.00 69 1011.9
20260504030640 45 359 0.0 0.0 0.00 0.00 0.00 68 1012.2
20260504030137 45 359 0.0 0.0 0.00 0.00 0.00 68 1012.0
20260504025634 45 359 0.0 0.0 0.00 0.00 0.00 65 1012.0
20260504025131 46 359 0.0 0.0 0.00 0.00 0.00 64 1012.2
20260504024628 46 359 0.0 0.0 0.00 0.00 0.00 65 1012.3
20260504024125 46 359 0.0 0.0 0.00 0.00 0.00 63 1012.2
20260504023621 47 359 0.0 0.0 0.00 0.00 0.00 61 1012.1
20260504023117 47 359 0.0 0.0 0.00 0.00 0.00 59 1012.3
20260504022614 47 359 0.0 0.0 0.00 0.00 0.00 60 1012.1
20260504022110 47 358 0.0 0.0 0.00 0.00 0.00 59 1012.0
20260504021608 46 359 0.0 0.0 0.00 0.00 0.00 62 1012.1
20260504021104 46 359 0.0 0.0 0.00 0.00 0.00 63 1012.3
20260504020601 46 359 0.0 0.0 0.00 0.00 0.00 64 1011.9
20260504020057 47 358 0.0 0.0 0.00 0.00 0.00 61 1012.0
20260504015554 47 359 0.0 0.0 0.00 0.00 0.00 61 1011.9
20260504015050 48 358 0.0 0.0 0.00 0.00 0.00 59 1012.0
20260504014546 47 358 0.0 0.0 0.00 0.00 0.00 60 1011.8
20260504014044 48 358 0.0 0.0 0.00 0.00 0.00 59 1011.7
20260504013541 48 358 0.0 0.0 0.00 0.00 0.00 58 1012.1
20260504013037 48 358 0.0 0.0 0.00 0.00 0.00 58 1011.9
20260504012530 48 358 0.0 0.0 0.00 0.00 0.00 60 1011.8
20260504012027 49 358 0.0 0.0 0.00 0.00 0.00 58 1011.6
20260504011524 49 358 0.0 0.0 0.00 0.00 0.00 57 1011.8
20260504011020 50 358 0.0 0.0 0.00 0.00 0.00 55 1011.8
20260504010516 50 358 0.0 0.0 0.00 0.00 0.00 55 1011.4
20260504010012 50 358 0.0 0.0 0.00 0.00 0.00 54 1011.6
20260504005509 51 357 0.0 0.0 0.00 0.00 0.00 54 1011.7
20260504005007 52 357 0.0 0.0 0.00 0.00 0.00 53 1011.7
20260504004504 52 39 0.0 0.0 0.00 0.00 0.00 48 1011.4
20260504004001 53 42 0.0 0.0 0.00 0.00 0.00 50 1011.4
20260504003457 53 32 0.0 0.9 0.00 0.00 0.00 49 1011.3
20260504002954 53 30 0.0 0.0 0.00 0.00 0.00 46 1011.3
20260504002451 54 27 0.0 0.0 0.00 0.00 0.00 46 1011.1
20260504001948 54 308 0.9 1.7 0.00 0.00 0.00 45 1011.1
20260504001445 55 67 0.0 0.0 0.00 0.00 0.00 45 1011.0
20260504000942 55 43 0.0 0.0 0.00 0.00 0.00 46 1011.1
20260504000439 55 317 0.9 1.7 0.00 0.00 0.00 43 1010.9
20260503235936 56 82 0.0 0.9 0.00 0.00 0.00 44 1011.1
20260503235434 56 315 1.7 1.7 0.00 0.00 0.00 42 1010.8
20260503234931 57 313 0.9 1.7 0.00 0.00 0.00 42 1011.0
20260503234429 57 300 1.7 2.6 0.00 0.00 0.00 41 1010.8
20260503233927 57 249 2.6 4.3 0.00 0.00 0.00 40 1010.7
20260503233423 58 321 0.9 1.7 0.00 0.00 0.00 39 1010.7
20260503232919 58 313 1.7 1.7 0.00 0.00 0.00 38 1010.6
20260503232416 59 145 2.6 4.3 0.00 0.00 0.00 38 1010.6
20260503231914 59 295 5.2 7.0 0.00 0.00 0.00 38 1010.8
20260503231411 59 354 3.5 5.2 0.00 0.00 0.00 38 1010.8
20260503230908 59 30 0.9 1.7 0.00 0.00 0.00 38 1010.5
20260503230404 60 224 3.5 5.2 0.00 0.00 0.00 37 1010.4
20260503225902 60 54 0.9 1.7 0.00 0.00 0.00 37 1010.4
20260503225358 61 251 2.6 4.3 0.00 0.00 0.00 36 1010.4
20260503224854 61 32 0.0 0.0 0.00 0.00 0.00 36 1010.6
20260503224351 60 357 1.7 2.6 0.00 0.00 0.00 36 1010.5
20260503223849 61 317 4.3 6.1 0.00 0.00 0.00 36 1010.4
20260503223347 61 256 5.2 7.0 0.00 0.00 0.00 36 1010.3
20260503222842 61 7 1.7 2.6 0.00 0.00 0.00 35 1010.3
20260503222341 60 329 4.3 6.1 0.00 0.00 0.00 36 1010.4
20260503221838 60 69 0.9 0.9 0.00 0.00 0.00 37 1010.5
20260503221337 60 292 3.5 5.2 0.00 0.00 0.00 37 1010.5
20260503220832 61 2 2.6 5.2 0.00 0.00 0.00 36 1010.6
20260503220330 61 27 2.6 2.6 0.00 0.00 0.00 36 1010.3
20260503215826 61 248 4.3 7.0 0.00 0.00 0.00 35 1010.4
20260503215324 61 28 0.9 1.7 0.00 0.00 0.00 34 1010.4
20260503214821 61 232 4.3 6.1 0.00 0.00 0.00 36 1010.5
20260503214318 61 347 1.7 2.6 0.00 0.00 0.00 35 1010.3
20260503213816 62 47 7.0 7.8 0.00 0.00 0.00 34 1010.2
20260503213313 61 298 4.3 5.2 0.00 0.00 0.00 34 1010.5
20260503212804 61 347 3.5 5.2 0.00 0.00 0.00 35 1010.0
20260503212304 60 53 3.5 5.2 0.00 0.00 0.00 34 1010.2
20260503211759 60 354 2.6 2.6 0.00 0.00 0.00 35 1010.1
20260503211255 61 326 1.7 2.6 0.00 0.00 0.00 35 1010.1
20260503210755 60 38 2.6 6.1 0.00 0.00 0.00 34 1010.1
20260503210253 61 43 2.6 4.3 0.00 0.00 0.00 34 1010.2
20260503205748 60 15 2.6 4.3 0.00 0.00 0.00 35 1010.1
20260503205245 60 327 2.6 2.6 0.00 0.00 0.00 35 1010.2
20260503204741 59 27 0.9 0.9 0.00 0.00 0.00 34 1010.2
20260503204239 60 3 1.7 1.7 0.00 0.00 0.00 34 1010.2
20260503203737 60 327 1.7 2.6 0.00 0.00 0.00 34 1010.3
20260503203234 61 281 4.3 6.1 0.00 0.00 0.00 34 1010.2
20260503202731 60 41 0.9 0.9 0.00 0.00 0.00 33 1010.2
20260503202229 60 329 4.3 6.1 0.00 0.00 0.00 34 1010.1
20260503201726 59 261 7.0 9.6 0.00 0.00 0.00 33 1010.5
20260503201224 59 24 2.6 4.3 0.00 0.00 0.00 35 1010.5
20260503200720 61 302 5.2 7.8 0.00 0.00 0.00 34 1010.6
20260503200216 61 282 3.5 4.3 0.00 0.00 0.00 33 1010.6
20260503195713 60 305 6.1 7.0 0.00 0.00 0.00 34 1010.7
20260503195210 59 22 1.7 1.7 0.00 0.00 0.00 35 1010.8
20260503194707 58 55 1.7 2.6 0.00 0.00 0.00 36 1010.6
20260503194203 59 33 8.7 11.3 0.00 0.00 0.00 34 1010.8
20260503193700 59 302 0.9 1.7 0.00 0.00 0.00 34 1010.9
20260503193155 59 228 3.5 7.8 0.00 0.00 0.00 35 1011.0
20260503192651 58 304 2.6 4.3 0.00 0.00 0.00 36 1011.0
20260503192146 58 349 3.5 4.3 0.00 0.00 0.00 36 1011.0
20260503191638 59 32 1.7 2.6 0.00 0.00 0.00 37 1011.1
20260503191135 58 45 4.3 7.0 0.00 0.00 0.00 36 1011.0
20260503190632 59 240 4.3 6.1 0.00 0.00 0.00 35 1011.2
20260503190129 59 25 2.6 5.2 0.00 0.00 0.00 36 1011.1
20260503185625 58 324 2.6 2.6 0.00 0.00 0.00 37 1011.4
20260503185120 57 324 4.3 7.0 0.00 0.00 0.00 37 1011.4
20260503184616 57 3 3.5 4.3 0.00 0.00 0.00 37 1011.4
20260503184113 57 13 3.5 4.3 0.00 0.00 0.00 37 1011.4
20260503183609 57 45 4.3 5.2 0.00 0.00 0.00 37 1011.5
20260503183107 56 20 4.3 7.8 0.00 0.00 0.00 36 1011.6
20260503182605 56 263 2.6 4.3 0.00 0.00 0.00 40 1011.6
20260503182103 56 240 5.2 7.0 0.00 0.00 0.00 37 1011.8
20260503181559 57 354 3.5 5.2 0.00 0.00 0.00 38 1011.8
20260503181056 56 358 2.6 4.3 0.00 0.00 0.00 38 1011.5
20260503180553 55 285 4.3 6.1 0.00 0.00 0.00 38 1011.7
20260503180050 56 163 2.6 2.6 0.00 0.00 0.00 38 1011.8
20260503175547 57 246 3.5 7.0 0.00 0.00 0.00 37 1011.8
20260503175045 57 285 6.1 8.7 0.00 0.00 0.00 37 1011.8
20260503174542 56 29 4.3 5.2 0.00 0.00 0.00 38 1011.9
20260503174038 56 341 3.5 5.2 0.00 0.00 0.00 37 1011.9
20260503173533 57 250 6.1 7.0 0.00 0.00 0.00 36 1011.6
20260503173030 55 324 4.3 6.1 0.00 0.00 0.00 37 1011.9
20260503172527 55 17 7.8 13.0 0.00 0.00 0.00 38 1011.9
20260503172024 56 176 3.5 6.1 0.00 0.00 0.00 39 1012.0
20260503171521 55 330 4.3 6.1 0.00 0.00 0.00 39 1012.2
20260503171018 54 314 7.0 12.2 0.00 0.00 0.00 37 1012.1
20260503170514 54 22 2.6 4.3 0.00 0.00 0.00 39 1012.1
20260503150907 50 31 3.5 5.2 0.00 0.00 0.00 45 1013.0
20260503150403 48 5 1.7 2.6 0.00 0.00 0.00 52 1013.0